Location: Danville Conservation Area
(38.8674°N, 91.5143°W)
Time: 10:17:31
(UTC-06:00)

ISS - Pass Details

Date: 07 December 2021
Orbit: 413 x 422 km, 51.6° (Epoch: 19 January)

Event Time Altitude Azimuth Distance (km) Brightness Sun altitude
Rises 17:53:18 0° 307° (NW) 2,380 0.6 -13.2°
Reaches altitude 10° 17:55:25 10° 307° (NW) 1,510 -0.5 -13.6°
Maximum altitude 17:58:48 81° 221° (SW) 430 -3.7 -14.2°
Enters shadow 18:01:57 11° 133° (SE) 1,409 -1.4 -14.8°
